sat.trackr.live / text

‹ back to catalog

SRMSAT

NORAD 37841 · 2011-058D

PAYLOAD ACTIVE UNKNOWN

§ Identity

Operator
Country
IND
Launch date
2011-10-12
Launch site
SRILR
Launch vehicle
Mass (kg)
RCS (m²)
0.20

Purposes: comms, earth_obs

External: N2YO · Heavens-Above · Gunter

§ Orbital elements

Epoch: 2026-09-20T00:26:10.065984Z

Period
102.01 min
Inclination
19.9709°
Eccentricity
0.0011868
Mean motion
14.11593351 rev/d
Perigee alt
845.3 km
Apogee alt
862.5 km
Semi-major
7,232.1 km
B*
4.9981e-5
RAAN
205.4664°
Arg perigee
166.7244°
Mean anomaly
270.3270°
Rev number
77,123

§ Raw data

SRMSAT1 37841U 11058D   26263.01817206  .00000357  00000+0  49981-4 0  99912 37841  19.9709 205.4664 0011868 166.7244 270.3270 14.11593351771235

JSON: /api/v1/satellites/37841 · /tle

For live sub-satellite position, see the globe view (requires WebGL).

§ Visibility from observer

Set your observer location to see the next 7 days of passes ≥ 10°. The values pass through the URL so the page stays shareable.

No JS? Fill the form by hand. The geolocation button needs JavaScript.

§ Radio — SatNOGS DB

ModeDescriptionDownlinkUplink
CW CW Beacon 437.425 MHz

1 transmitter · refreshed weekly from db.satnogs.org